Tracking 29892 objects as of 21-Nov-2024
HD Live streaming from Space Station
objects crossing your sky now

TITAN 3C TRANSTAGE DEB

Track TITAN 3C TRANSTAGE DEB now!
10-day predictions


NORAD ID: 1883
Int'l Code: 1965-082EY
Perigee: 520.1 km
Apogee: 542.6 km
Inclination: 32.1 °
Period: 95.1 minutes
Semi major axis: 6902 km
RCS: 0.045 m2 (small)
Launch date: October 15, 1965
Source: United States (US)
Launch site: AIR FORCE EASTERN TEST RANGE (AFETR)

Note: This is SATELLITE DEBRIS
Your satellite tracking list
Your tracking list is empty




NASA's NSSDC Master Catalog

Two Line Element Set (TLE):
1  1883U 65082EY  24325.60745969  .00010673  00000-0  56917-3 0  9991
2  1883  32.0906 146.0116 0016272 174.8277 185.2552 15.13932727199361
Source of the keplerian elements: AFSPC